This is the latest recevied weather packets stored in our database for station/object EA8DNP-14. If no packets are shown the sender has not sent any weather packets the latest 1 day(s).
| Time | Temp. | Humidity | Pressure | Rain* | Wind** | Luminosity | Snow |
|---|---|---|---|---|---|---|---|
| 1788600958 | 26.67° C | 12% | 905.4 hPa | - | - | - | - |
| 1788600057 | 25.56° C | 13% | 905.5 hPa | - | - | - | - |
| 1788599157 | 25.56° C | 14% | 905.3 hPa | - | - | - | - |
| 1788598257 | 26.11° C | 12% | 905.2 hPa | - | - | - | - |
| 1788597357 | 26.67° C | 12% | 905.1 hPa | - | - | - | - |
| 1788596457 | 26.11° C | 12% | 905 hPa | - | - | - | - |
| 1788595556 | 25° C | 12% | 904.8 hPa | - | - | - | - |
| 1788594656 | 23.89° C | 13% | 904.7 hPa | - | - | - | - |
| 1788593756 | 23.89° C | 13% | 904.5 hPa | - | - | - | - |
| 1788592856 | 23.89° C | 13% | 904.3 hPa | - | - | - | - |
| 1788591956 | 23.89° C | 12% | 904 hPa | - | - | - | - |
| 1788591056 | 23.89° C | 12% | 903.8 hPa | - | - | - | - |
| 1788590159 | 23.33° C | 14% | 903.6 hPa | - | - | - | - |
| 1788589256 | 23.33° C | 14% | 903.4 hPa | - | - | - | - |
| 1788588355 | 22.78° C | 16% | 903.1 hPa | - | - | - | - |
| 1788587455 | 21.67° C | 17% | 902.9 hPa | - | - | - | - |
| 1788586555 | 21.67° C | 18% | 903.1 hPa | - | - | - | - |
| 1788585655 | 21.67° C | 18% | 903.2 hPa | - | - | - | - |
| 1788584755 | 22.22° C | 17% | 903.7 hPa | - | - | - | - |
| 1788583855 | 22.22° C | 18% | 903.4 hPa | - | - | - | - |
| 1788582955 | 21.67° C | 19% | 903.5 hPa | - | - | - | - |
| 1788582055 | 21.11° C | 19% | 903.6 hPa | - | - | - | - |
| 1788581155 | 21.11° C | 19% | 903.6 hPa | - | - | - | - |
| 1788580254 | 21.11° C | 19% | 903.6 hPa | - | - | - | - |
| 1788579354 | 21.11° C | 18% | 903.8 hPa | - | - | - | - |
* Rain since midnight (hover to see other rain measurements)
** Current wind speed in m/s (hover to see current wind gust speed)